Time,TemperatureF,DewpointF,PressureIn,WindDirection,WindDirectionDegrees,WindSpeedMPH,WindSpeedGustMPH,Humidity,HourlyPrecipIn,Conditions,Clouds,dailyrainin,SoftwareType,DateUTC
2013-02-01 10:11:00,57.2,22.6,17.72,WSW,253,0.0,0.0,26,0.91,,,0.91,WeatherTracker,2013-02-01 18:11:00,
2013-02-01 10:12:00,57.2,22.6,17.72,WSW,253,0.0,0.0,26,0.91,,,0.91,WeatherTracker,2013-02-01 18:12:00,
2013-02-01 10:17:00,56.8,22.3,17.72,WSW,253,0.0,0.0,26,0.91,,,0.91,WeatherTracker,2013-02-01 18:17:00,
2013-02-01 10:22:00,56.8,22.3,17.72,WSW,253,0.0,0.0,26,0.91,,,0.91,WeatherTracker,2013-02-01 18:22:00,
2013-02-01 10:27:00,58.1,23.4,17.72,WSW,253,0.0,0.0,26,0.91,,,0.91,WeatherTracker,2013-02-01 18:27:00,
2013-02-01 10:32:00,60.1,24.2,17.72,WSW,253,0.0,0.0,25,0.91,,,0.91,WeatherTracker,2013-02-01 18:32:00,
2013-02-01 10:37:00,60.6,24.6,17.72,WSW,253,2.0,2.0,25,0.91,,,0.91,WeatherTracker,2013-02-01 18:37:00,
2013-02-01 10:42:00,60.6,24.6,17.72,WSW,253,0.0,0.0,25,0.91,,,0.91,WeatherTracker,2013-02-01 18:42:00,
2013-02-01 10:47:00,59.9,24.0,17.72,WSW,253,0.0,0.0,25,0.91,,,0.91,WeatherTracker,2013-02-01 18:47:00,
2013-02-01 10:52:00,59.2,23.4,17.72,WSW,253,0.0,0.0,25,0.91,,,0.91,WeatherTracker,2013-02-01 18:52:00,
2013-02-01 10:57:00,58.3,22.6,17.72,WSW,253,0.0,0.0,25,0.91,,,0.91,WeatherTracker,2013-02-01 18:57:00,
2013-02-01 11:02:00,57.7,22.2,17.72,WSW,253,0.0,0.0,25,0.91,,,0.91,WeatherTracker,2013-02-01 19:02:00,
2013-02-01 11:07:00,57.2,21.7,17.72,WSW,253,0.0,0.0,25,0.91,,,0.91,WeatherTracker,2013-02-01 19:07:00,
2013-02-01 11:12:00,57.2,22.6,17.72,WSW,253,0.0,0.0,26,0.00,,,0.91,WeatherTracker,2013-02-01 19:12:00,
2013-02-01 11:17:00,57.0,22.5,17.72,WSW,253,0.0,0.0,26,0.00,,,0.91,WeatherTracker,2013-02-01 19:17:00,
2013-02-01 11:22:00,56.8,22.3,17.72,WSW,253,0.0,0.0,26,0.00,,,0.91,WeatherTracker,2013-02-01 19:22:00,
2013-02-01 11:27:00,56.8,22.3,17.72,West,266,0.0,0.0,26,0.00,,,0.91,WeatherTracker,2013-02-01 19:27:00,
2013-02-01 11:32:00,57.9,23.2,17.72,WSW,238,0.0,0.0,26,0.00,,,0.91,WeatherTracker,2013-02-01 19:32:00,
2013-02-01 11:37:00,59.4,23.5,17.72,WSW,238,0.0,0.0,25,0.00,,,0.91,WeatherTracker,2013-02-01 19:37:00,
2013-02-01 11:42:00,59.7,23.8,17.72,WSW,238,0.0,0.0,25,0.00,,,0.91,WeatherTracker,2013-02-01 19:42:00,
2013-02-01 11:47:00,59.4,23.5,17.72,WSW,238,0.0,0.0,25,0.00,,,0.91,WeatherTracker,2013-02-01 19:47:00,
2013-02-01 11:52:00,59.2,23.4,17.72,WSW,238,0.0,0.0,25,0.00,,,0.91,WeatherTracker,2013-02-01 19:52:00,
2013-02-01 11:57:00,58.6,22.9,17.72,WSW,248,0.0,0.0,25,0.00,,,0.91,WeatherTracker,2013-02-01 19:57:00,
2013-02-01 12:02:00,58.5,22.8,17.72,WSW,248,0.0,0.0,25,0.00,,,0.91,WeatherTracker,2013-02-01 20:02:00,
2013-02-01 12:07:00,58.5,22.8,17.72,WSW,248,0.0,3.0,25,0.00,,,0.91,WeatherTracker,2013-02-01 20:07:00,
2013-02-01 12:12:00,58.5,23.7,17.72,WSW,248,0.0,0.0,26,0.00,,,0.91,WeatherTracker,2013-02-01 20:12:00,
2013-02-01 12:17:00,58.5,22.8,17.72,WSW,248,0.0,2.0,25,0.00,,,0.91,WeatherTracker,2013-02-01 20:17:00,
2013-02-01 12:22:00,58.3,23.6,17.72,WSW,248,0.0,0.0,26,0.00,,,0.91,WeatherTracker,2013-02-01 20:22:00,
2013-02-01 12:27:00,58.1,23.4,17.72,WSW,248,0.0,0.0,26,0.00,,,0.91,WeatherTracker,2013-02-01 20:27:00,
2013-02-01 12:32:00,59.7,23.8,17.72,WSW,248,0.0,0.0,25,0.00,,,0.91,WeatherTracker,2013-02-01 20:32:00,
2013-02-01 12:37:00,61.9,25.7,17.72,WSW,248,0.0,0.0,25,0.00,,,0.91,WeatherTracker,2013-02-01 20:37:00,
2013-02-01 12:42:00,61.7,25.5,17.72,WSW,248,0.0,0.0,25,0.00,,,0.91,WeatherTracker,2013-02-01 20:42:00,
2013-02-01 12:47:00,60.6,24.6,17.72,WSW,248,0.0,0.0,25,0.00,,,0.91,WeatherTracker,2013-02-01 20:47:00,
2013-02-01 12:52:00,60.1,24.2,17.72,NW,322,0.0,0.0,25,0.00,,,0.91,WeatherTracker,2013-02-01 20:52:00,
2013-02-01 12:57:00,60.4,24.5,17.72,NW,322,0.0,0.0,25,0.00,,,0.91,WeatherTracker,2013-02-01 20:57:00,
2013-02-01 13:02:00,63.9,26.4,17.72,NW,322,0.0,0.0,24,0.00,,,0.91,WeatherTracker,2013-02-01 21:02:00,
2013-02-01 13:07:00,65.8,27.0,17.72,NW,322,0.0,0.0,23,0.00,,,0.91,WeatherTracker,2013-02-01 21:07:00,
2013-02-01 13:12:00,64.8,26.1,17.72,NW,322,0.0,0.0,23,0.00,,,0.91,WeatherTracker,2013-02-01 21:12:00,
2013-02-01 13:17:00,64.2,26.7,17.72,NW,322,0.0,0.0,24,0.00,,,0.91,WeatherTracker,2013-02-01 21:17:00,
2013-02-01 13:22:00,62.2,25.0,17.72,NW,322,0.0,0.0,24,0.00,,,0.91,WeatherTracker,2013-02-01 21:22:00,
2013-02-01 13:27:00,60.4,24.5,17.72,NW,322,0.0,0.0,25,0.00,,,0.91,WeatherTracker,2013-02-01 21:27:00,
2013-02-01 13:32:00,59.5,23.7,17.72,NW,322,0.0,0.0,25,0.00,,,0.91,WeatherTracker,2013-02-01 21:32:00,
2013-02-01 13:37:00,59.2,23.4,17.72,NW,322,0.0,0.0,25,0.00,,,0.91,WeatherTracker,2013-02-01 21:37:00,
2013-02-01 13:42:00,58.6,22.9,17.72,NW,322,0.0,0.0,25,0.00,,,0.91,WeatherTracker,2013-02-01 21:42:00,
2013-02-01 13:47:00,58.5,23.7,17.72,NW,322,0.0,0.0,26,0.00,,,0.91,WeatherTracker,2013-02-01 21:47:00,
2013-02-01 13:52:00,57.7,23.1,17.72,NW,322,0.0,0.0,26,0.00,,,0.91,WeatherTracker,2013-02-01 21:52:00,
2013-02-01 13:57:00,57.6,22.9,17.72,NW,322,0.0,0.0,26,0.00,,,0.91,WeatherTracker,2013-02-01 21:57:00,
2013-02-01 14:02:00,57.6,22.9,17.72,NW,322,0.0,0.0,26,0.00,,,0.91,WeatherTracker,2013-02-01 22:02:00,
2013-02-01 14:07:00,57.4,22.8,17.72,NW,322,0.0,0.0,26,0.00,,,0.91,WeatherTracker,2013-02-01 22:07:00,
2013-02-01 14:12:00,57.2,22.6,17.72,NW,322,0.0,0.0,26,0.00,,,0.91,WeatherTracker,2013-02-01 22:12:00,
2013-02-01 14:18:00,57.4,22.8,17.72,NW,322,0.0,0.0,26,0.00,,,0.91,WeatherTracker,2013-02-01 22:18:00,
2013-02-01 14:23:00,57.4,22.8,17.72,NW,322,0.0,0.0,26,0.00,,,0.91,WeatherTracker,2013-02-01 22:23:00,
2013-02-01 14:28:00,57.2,22.6,17.72,NW,322,0.0,0.0,26,0.00,,,0.91,WeatherTracker,2013-02-01 22:28:00,
2013-02-01 14:33:00,57.2,22.6,17.72,NW,322,0.0,0.0,26,0.00,,,0.91,WeatherTracker,2013-02-01 22:33:00,
2013-02-01 14:38:00,57.0,23.4,17.72,NW,322,0.0,0.0,27,0.00,,,0.91,WeatherTracker,2013-02-01 22:38:00,
2013-02-01 14:43:00,57.0,23.4,17.72,NW,322,0.0,0.0,27,0.00,,,0.91,WeatherTracker,2013-02-01 22:43:00,
2013-02-01 14:48:00,57.0,23.4,17.72,NW,322,0.0,2.0,27,0.00,,,0.91,WeatherTracker,2013-02-01 22:48:00,
2013-02-01 14:53:00,57.2,23.5,17.72,NW,322,2.0,3.0,27,0.00,,,0.91,WeatherTracker,2013-02-01 22:53:00,
2013-02-01 14:58:00,57.2,23.5,17.72,NW,322,2.0,3.0,27,0.00,,,0.91,WeatherTracker,2013-02-01 22:58:00,
2013-02-01 15:03:00,57.2,22.6,17.72,NW,322,0.0,0.0,26,0.00,,,0.91,WeatherTracker,2013-02-01 23:03:00,
2013-02-01 15:08:00,57.2,23.5,17.72,NW,322,0.0,0.0,27,0.00,,,0.91,WeatherTracker,2013-02-01 23:08:00,
2013-02-01 15:13:00,57.0,23.4,17.72,NW,322,3.0,4.0,27,0.00,,,0.91,WeatherTracker,2013-02-01 23:13:00,
2013-02-01 15:18:00,56.8,23.2,17.72,NW,322,0.0,3.0,27,0.00,,,0.91,WeatherTracker,2013-02-01 23:18:00,
2013-02-01 15:23:00,56.7,23.1,17.72,NW,322,3.0,4.0,27,0.00,,,0.91,WeatherTracker,2013-02-01 23:23:00,
2013-02-01 15:28:00,56.7,23.1,17.72,NW,322,2.0,0.0,27,0.00,,,0.91,WeatherTracker,2013-02-01 23:28:00,
2013-02-01 15:33:00,56.5,23.8,17.72,NW,322,2.0,3.0,28,0.00,,,0.91,WeatherTracker,2013-02-01 23:33:00,
2013-02-01 15:38:00,56.5,22.9,17.72,NW,322,3.0,3.0,27,0.00,,,0.91,WeatherTracker,2013-02-01 23:38:00,
2013-02-01 15:43:00,56.5,23.8,17.72,NW,322,3.0,3.0,28,0.00,,,0.91,WeatherTracker,2013-02-01 23:43:00,
2013-02-01 15:48:00,56.5,23.8,17.72,NW,322,3.0,3.0,28,0.00,,,0.91,WeatherTracker,2013-02-01 23:48:00,
2013-02-01 15:53:00,56.3,23.6,17.72,NW,322,3.0,3.0,28,0.00,,,0.91,WeatherTracker,2013-02-01 23:53:00,
2013-02-01 15:58:00,56.3,23.6,17.72,NW,322,3.0,3.0,28,0.00,,,0.91,WeatherTracker,2013-02-01 23:58:00,
2013-02-01 16:03:00,56.1,23.5,17.72,NW,322,3.0,3.0,28,0.00,,,0.91,WeatherTracker,2013-02-02 00:03:00,
2013-02-01 16:08:00,56.1,23.5,17.72,NW,322,3.0,3.0,28,0.00,,,0.91,WeatherTracker,2013-02-02 00:08:00,
2013-02-01 16:13:00,55.9,23.3,17.72,NW,322,3.0,3.0,28,0.00,,,0.91,WeatherTracker,2013-02-02 00:13:00,
2013-02-01 16:18:00,55.9,24.1,17.72,NW,322,3.0,3.0,29,0.00,,,0.91,WeatherTracker,2013-02-02 00:18:00,
2013-02-01 16:23:00,55.9,23.3,17.72,NW,322,3.0,3.0,28,0.00,,,0.91,WeatherTracker,2013-02-02 00:23:00,
2013-02-01 16:28:00,55.9,23.3,17.72,NW,322,3.0,4.0,28,0.00,,,0.91,WeatherTracker,2013-02-02 00:28:00,
2013-02-01 16:33:00,55.9,23.3,17.72,NW,322,3.0,4.0,28,0.00,,,0.91,WeatherTracker,2013-02-02 00:33:00,
2013-02-01 16:38:00,55.9,23.3,17.72,NW,322,3.0,3.0,28,0.00,,,0.91,WeatherTracker,2013-02-02 00:38:00,
2013-02-01 16:43:00,55.9,23.3,17.72,NW,322,3.0,3.0,28,0.00,,,0.91,WeatherTracker,2013-02-02 00:43:00,
2013-02-01 16:48:00,55.9,23.3,17.72,NW,322,3.0,3.0,28,0.00,,,0.91,WeatherTracker,2013-02-02 00:48:00,
2013-02-01 16:53:00,55.9,23.3,17.72,NW,322,3.0,3.0,28,0.00,,,0.91,WeatherTracker,2013-02-02 00:53:00,
2013-02-01 16:58:00,56.1,23.5,17.72,NW,322,3.0,3.0,28,0.00,,,0.91,WeatherTracker,2013-02-02 00:58:00,
2013-02-01 17:03:00,55.9,23.3,17.72,NW,322,3.0,3.0,28,0.00,,,0.91,WeatherTracker,2013-02-02 01:03:00,
2013-02-01 17:08:00,55.8,23.2,17.72,NW,322,3.0,3.0,28,0.00,,,0.91,WeatherTracker,2013-02-02 01:08:00,
2013-02-01 17:13:00,55.8,23.2,17.72,NW,322,3.0,3.0,28,0.00,,,0.91,WeatherTracker,2013-02-02 01:13:00,
2013-02-01 17:18:00,55.6,23.0,17.72,NW,322,2.0,3.0,28,0.00,,,0.91,WeatherTracker,2013-02-02 01:18:00,
2013-02-01 17:23:00,55.4,23.7,17.72,NW,322,3.0,4.0,29,0.00,,,0.91,WeatherTracker,2013-02-02 01:23:00,
2013-02-01 17:28:00,55.4,22.8,17.72,NW,322,2.0,3.0,28,0.00,,,0.91,WeatherTracker,2013-02-02 01:28:00,
2013-02-01 17:33:00,55.4,22.8,17.72,NW,322,3.0,3.0,28,0.00,,,0.91,WeatherTracker,2013-02-02 01:33:00,
2013-02-01 17:38:00,55.2,22.7,17.72,NW,322,3.0,3.0,28,0.00,,,0.91,WeatherTracker,2013-02-02 01:38:00,
2013-02-01 17:43:00,55.4,22.8,17.72,NW,322,3.0,3.0,28,0.00,,,0.91,WeatherTracker,2013-02-02 01:43:00,
2013-02-01 17:48:00,55.4,22.8,17.72,NW,322,3.0,3.0,28,0.00,,,0.91,WeatherTracker,2013-02-02 01:48:00,
2013-02-01 17:53:00,55.4,22.8,17.72,NW,322,3.0,3.0,28,0.00,,,0.91,WeatherTracker,2013-02-02 01:53:00,
2013-02-01 17:58:00,55.2,22.7,17.72,NW,322,2.0,3.0,28,0.00,,,0.91,WeatherTracker,2013-02-02 01:58:00,
2013-02-01 18:03:00,55.4,22.8,17.72,NW,322,2.0,3.0,28,0.00,,,0.91,WeatherTracker,2013-02-02 02:03:00,
2013-02-01 18:08:00,55.4,22.8,17.72,NW,322,0.0,0.0,28,0.00,,,0.91,WeatherTracker,2013-02-02 02:08:00,
2013-02-01 18:13:00,55.4,22.8,17.72,NW,322,2.0,3.0,28,0.00,,,0.91,WeatherTracker,2013-02-02 02:13:00,
2013-02-01 18:18:00,55.2,22.7,17.72,NW,322,3.0,3.0,28,0.00,,,0.91,WeatherTracker,2013-02-02 02:18:00,
2013-02-01 18:23:00,55.2,22.7,17.72,NW,322,2.0,2.0,28,0.00,,,0.91,WeatherTracker,2013-02-02 02:23:00,
2013-02-01 18:28:00,55.2,22.7,17.72,NW,322,2.0,3.0,28,0.00,,,0.91,WeatherTracker,2013-02-02 02:28:00,
2013-02-01 18:33:00,55.2,22.7,17.72,NW,322,3.0,3.0,28,0.00,,,0.91,WeatherTracker,2013-02-02 02:33:00,
2013-02-01 18:38:00,55.2,22.7,17.72,NW,322,3.0,3.0,28,0.00,,,0.91,WeatherTracker,2013-02-02 02:38:00,
2013-02-01 18:43:00,55.0,22.5,17.72,NW,322,3.0,3.0,28,0.00,,,0.91,WeatherTracker,2013-02-02 02:43:00,
2013-02-01 18:48:00,55.0,22.5,17.72,NW,322,2.0,3.0,28,0.00,,,0.91,WeatherTracker,2013-02-02 02:48:00,
2013-02-01 18:53:00,55.0,22.5,17.72,NW,322,2.0,3.0,28,0.00,,,0.91,WeatherTracker,2013-02-02 02:53:00,
2013-02-01 18:58:00,54.9,23.2,17.72,NW,322,2.0,3.0,29,0.00,,,0.91,WeatherTracker,2013-02-02 02:58:00,
2013-02-01 19:03:00,54.9,23.2,17.72,NW,322,2.0,3.0,29,0.00,,,0.91,WeatherTracker,2013-02-02 03:03:00,
2013-02-01 19:08:00,54.9,22.4,17.72,NW,322,2.0,3.0,28,0.00,,,0.91,WeatherTracker,2013-02-02 03:08:00,
2013-02-01 19:13:00,54.9,22.4,17.72,NW,322,2.0,3.0,28,0.00,,,0.91,WeatherTracker,2013-02-02 03:13:00,
2013-02-01 19:18:00,55.0,22.5,17.72,NW,322,2.0,3.0,28,0.00,,,0.91,WeatherTracker,2013-02-02 03:18:00,
2013-02-01 19:23:00,55.0,22.5,17.72,NW,322,3.0,3.0,28,0.00,,,0.91,WeatherTracker,2013-02-02 03:23:00,
2013-02-01 19:28:00,54.9,23.2,17.72,NW,322,2.0,3.0,29,0.00,,,0.91,WeatherTracker,2013-02-02 03:28:00,
2013-02-01 19:33:00,54.7,23.1,17.72,NW,322,3.0,3.0,29,0.00,,,0.91,WeatherTracker,2013-02-02 03:33:00,
2013-02-01 19:38:00,54.5,22.9,17.72,NW,322,0.0,2.0,29,0.00,,,0.91,WeatherTracker,2013-02-02 03:38:00,
2013-02-01 19:43:00,54.7,23.1,17.72,NW,322,0.0,0.0,29,0.00,,,0.91,WeatherTracker,2013-02-02 03:43:00,
2013-02-01 19:48:00,54.5,22.9,17.72,NW,322,0.0,0.0,29,0.00,,,0.91,WeatherTracker,2013-02-02 03:48:00,
2013-02-01 19:53:00,54.5,23.7,17.72,NW,322,0.0,0.0,30,0.00,,,0.91,WeatherTracker,2013-02-02 03:53:00,
2013-02-01 19:58:00,54.3,23.6,17.72,NW,322,0.0,0.0,30,0.00,,,0.91,WeatherTracker,2013-02-02 03:58:00,
2013-02-01 20:03:00,54.3,23.6,17.72,NW,322,0.0,0.0,30,0.00,,,0.91,WeatherTracker,2013-02-02 04:03:00,
2013-02-01 20:08:00,54.3,22.7,17.72,NW,322,0.0,0.0,29,0.00,,,0.91,WeatherTracker,2013-02-02 04:08:00,
2013-02-01 20:13:00,54.1,23.4,17.72,NW,322,0.0,2.0,30,0.00,,,0.91,WeatherTracker,2013-02-02 04:13:00,
2013-02-01 20:18:00,54.1,23.4,17.72,NW,322,0.0,0.0,30,0.00,,,0.91,WeatherTracker,2013-02-02 04:18:00,
2013-02-01 20:23:00,54.1,23.4,17.72,NW,322,0.0,2.0,30,0.00,,,0.91,WeatherTracker,2013-02-02 04:23:00,
2013-02-01 20:28:00,54.1,23.4,17.72,NW,322,0.0,3.0,30,0.00,,,0.91,WeatherTracker,2013-02-02 04:28:00,
2013-02-01 20:33:00,54.1,23.4,17.72,NW,322,0.0,0.0,30,0.00,,,0.91,WeatherTracker,2013-02-02 04:33:00,
2013-02-01 20:38:00,54.0,23.2,17.72,NW,322,0.0,0.0,30,0.00,,,0.91,WeatherTracker,2013-02-02 04:38:00,
2013-02-01 20:43:00,53.8,23.1,17.72,NW,322,0.0,0.0,30,0.00,,,0.91,WeatherTracker,2013-02-02 04:43:00,
2013-02-01 20:48:00,53.6,22.9,17.72,NW,322,0.0,0.0,30,0.00,,,0.91,WeatherTracker,2013-02-02 04:48:00,
2013-02-01 20:53:00,53.4,23.6,17.72,NW,322,0.0,0.0,31,0.00,,,0.91,WeatherTracker,2013-02-02 04:53:00,
2013-02-01 20:58:00,53.6,22.9,17.72,NW,322,0.0,0.0,30,0.00,,,0.91,WeatherTracker,2013-02-02 04:58:00,
2013-02-01 21:00:00,53.6,22.9,17.72,NW,322,0.0,0.0,30,0.00,,,0.91,WeatherTracker,2013-02-02 05:00:00,
2013-02-01 21:05:00,53.6,22.9,17.72,NW,322,0.0,0.0,30,0.00,,,0.91,WeatherTracker,2013-02-02 05:05:00,
2013-02-01 21:10:00,53.2,23.4,17.72,NW,322,0.0,0.0,31,0.00,,,0.91,WeatherTracker,2013-02-02 05:10:00,
2013-02-01 21:15:00,53.2,23.4,17.72,NW,322,0.0,0.0,31,0.00,,,0.91,WeatherTracker,2013-02-02 05:15:00,
2013-02-01 21:20:00,53.1,23.2,17.72,NW,322,0.0,0.0,31,0.00,,,0.91,WeatherTracker,2013-02-02 05:20:00,
2013-02-01 21:25:00,53.1,23.2,17.72,NW,322,0.0,0.0,31,0.00,,,0.91,WeatherTracker,2013-02-02 05:25:00,
2013-02-01 21:30:00,53.2,23.4,17.72,NW,322,0.0,0.0,31,0.00,,,0.91,WeatherTracker,2013-02-02 05:30:00,
2013-02-01 21:35:00,53.2,23.4,17.72,NW,322,0.0,0.0,31,0.00,,,0.91,WeatherTracker,2013-02-02 05:35:00,
2013-02-01 21:40:00,53.2,23.4,17.72,NW,322,0.0,0.0,31,0.00,,,0.91,WeatherTracker,2013-02-02 05:40:00,
2013-02-01 21:45:00,53.2,23.4,17.72,NW,322,0.0,0.0,31,0.00,,,0.91,WeatherTracker,2013-02-02 05:45:00,
2013-02-01 21:50:00,53.4,23.6,17.72,NW,322,0.0,0.0,31,0.00,,,0.91,WeatherTracker,2013-02-02 05:50:00,
2013-02-01 21:55:00,53.4,22.8,17.72,NW,322,0.0,0.0,30,0.00,,,0.91,WeatherTracker,2013-02-02 05:55:00,
2013-02-01 22:00:00,53.2,22.6,17.72,NW,322,0.0,0.0,30,0.00,,,0.91,WeatherTracker,2013-02-02 06:00:00,
2013-02-01 22:05:00,53.2,21.8,17.72,NW,322,0.0,0.0,29,0.00,,,0.91,WeatherTracker,2013-02-02 06:05:00,
2013-02-01 22:10:00,53.4,22.0,17.72,NW,322,0.0,0.0,29,0.00,,,0.91,WeatherTracker,2013-02-02 06:10:00,
2013-02-01 22:15:00,53.4,22.0,17.72,NW,322,0.0,0.0,29,0.00,,,0.91,WeatherTracker,2013-02-02 06:15:00,
2013-02-01 22:20:00,53.4,22.0,17.72,NW,322,0.0,0.0,29,0.00,,,0.91,WeatherTracker,2013-02-02 06:20:00,
2013-02-01 22:25:00,53.4,22.0,17.72,NW,322,0.0,0.0,29,0.00,,,0.91,WeatherTracker,2013-02-02 06:25:00,
2013-02-01 22:30:00,53.2,21.8,17.72,NW,322,0.0,0.0,29,0.00,,,0.91,WeatherTracker,2013-02-02 06:30:00,
2013-02-01 22:35:00,53.2,21.8,17.72,NW,322,0.0,0.0,29,0.00,,,0.91,WeatherTracker,2013-02-02 06:35:00,
2013-02-01 22:40:00,53.1,22.5,17.72,NW,322,0.0,0.0,30,0.00,,,0.91,WeatherTracker,2013-02-02 06:40:00,
2013-02-01 22:45:00,52.9,22.3,17.72,NW,322,0.0,0.0,30,0.00,,,0.91,WeatherTracker,2013-02-02 06:45:00,
2013-02-01 22:50:00,52.9,22.3,17.72,NW,322,0.0,0.0,30,0.00,,,0.91,WeatherTracker,2013-02-02 06:50:00,
2013-02-01 22:55:00,52.9,22.3,17.72,NW,322,0.0,0.0,30,0.00,,,0.91,WeatherTracker,2013-02-02 06:55:00,
2013-02-01 23:00:00,52.7,22.1,17.72,NW,322,0.0,0.0,30,0.00,,,0.91,WeatherTracker,2013-02-02 07:00:00,
2013-02-01 23:05:00,52.7,22.1,17.72,NW,322,0.0,0.0,30,0.00,,,0.91,WeatherTracker,2013-02-02 07:05:00,
2013-02-01 23:10:00,52.7,22.1,17.72,NW,322,0.0,0.0,30,0.00,,,0.91,WeatherTracker,2013-02-02 07:10:00,
2013-02-01 23:15:00,52.7,22.1,17.72,NW,322,0.0,0.0,30,0.00,,,0.91,WeatherTracker,2013-02-02 07:15:00,
2013-02-01 23:20:00,52.7,22.1,17.72,NW,322,2.0,2.0,30,0.00,,,0.91,WeatherTracker,2013-02-02 07:20:00,
2013-02-01 23:25:00,52.5,21.2,17.72,NW,322,0.0,0.0,29,0.00,,,0.91,WeatherTracker,2013-02-02 07:25:00,
2013-02-01 23:30:00,52.7,21.3,17.72,NW,322,0.0,0.0,29,0.00,,,0.91,WeatherTracker,2013-02-02 07:30:00,
2013-02-01 23:35:00,52.7,21.3,17.72,NW,322,0.0,0.0,29,0.00,,,0.91,WeatherTracker,2013-02-02 07:35:00,
2013-02-01 23:40:00,52.5,21.2,17.72,NW,322,0.0,0.0,29,0.00,,,0.91,WeatherTracker,2013-02-02 07:40:00,
2013-02-01 23:45:00,52.5,21.2,17.72,NW,322,0.0,2.0,29,0.00,,,0.91,WeatherTracker,2013-02-02 07:45:00,
2013-02-01 23:50:00,52.5,21.2,17.72,NW,322,0.0,0.0,29,0.00,,,0.91,WeatherTracker,2013-02-02 07:50:00,
2013-02-01 23:55:00,52.3,21.0,17.72,NW,322,0.0,0.0,29,0.00,,,0.91,WeatherTracker,2013-02-02 07:55:00,